Tracking 28052 objects as of 25-Sep-2023
HD Live streaming from Space Station
objects crossing your sky now

STARLINK-4362

Track STARLINK-4362 now!
10-day predictions
STARLINK-4362 is classified as:


NORAD ID: 53043
Int'l Code: 2022-077A
Perigee: 568.1 km
Apogee: 572.2 km
Inclination: 97.7 °
Period: 95.9 minutes
Semi major axis: 6941 km
RCS: Unknown
Launch date: July 11, 2022
Source: United States (US)
Launch site: AIR FORCE WESTERN TEST RANGE (AFWTR)
Your satellite tracking list
Your tracking list is empty




NASA's NSSDC Master Catalog

Two Line Element Set (TLE):
1 53043U 22077A   23267.50189770 -.00000356  00000-0 -23120-4 0  9998
2 53043  97.6557  87.1597 0002902  47.1024 313.0443 15.01261966 66315
Source of the keplerian elements: AFSPC